Wind_Speed
31 33 35 32 32 34 31 30 28 30 27 23 20 16 12 9 5 3 1 1 4 6 8 8 9 11 12 15 17 18 17 23
32 35 33 33 35 34 32 31 33 31 28 25 21 18 14 11 7 4 1 2 3 5 7 8 9 11 12 15 16 18 18 24
33 37 35 37 39 36 35 34 33 30 26 21 17 16 14 11 8 5 2 1 2 4 6 8 9 9 11 14 16 17 16 22
39 41 42 39 37 37 36 35 33 29 24 23 23 19 14 11 8 6 3 1 2 4 5 7 8 9 10 12 14 15 17 17
42 45 45 43 35 36 35 34 32 29 31 31 25 18 15 11 9 5 3 2 2 3 5 6 7 8 9 11 12 13 14 15
45 49 49 45 38 38 33 32 32 32 32 27 22 15 16 15 10 7 4 3 2 2 4 6 7 7 8 10 10 11 14 15
46 51 50 46 41 39 37 34 32 33 30 25 26 24 22 18 12 8 5 3 3 1 4 5 6 6 7 8 8 10 13 15
42 50 50 47 45 42 40 36 34 33 31 29 28 26 19 14 11 8 7 5 4 2 4 5 5 5 6 6 6 8 10 15
41 50 48 48 46 44 43 40 34 34 34 33 31 26 20 15 14 12 11 10 5 4 4 4 4 4 4 4 5 6 8 10
34 41 44 46 46 45 46 40 35 36 34 33 30 26 21 18 14 11 11 7 6 4 3 4 3 2 2 1 4 6 7 9
25 34 41 43 45 46 45 39 36 34 34 33 30 26 21 16 14 10 7 7 6 4 4 3 2 2 0 0 3 5 7 9
26 28 39 39 40 45 44 39 38 38 36 33 31 26 21 17 12 8 10 9 7 5 3 3 4 2 1 1 3 5 6 9
21 25 35 36 39 39 44 39 38 37 35 35 30 24 20 14 11 13 12 9 6 5 6 6 4 2 1 1 2 4 6 8
16 21 35 37 38 38 42 38 39 38 36 34 28 21 15 16 18 15 12 8 7 8 8 6 4 3 1 1 2 3 5 7
19 23 33 35 39 39 42 38 39 40 37 34 28 18 17 21 19 15 11 10 11 10 8 7 6 4 3 2 1 2 4 6
18 25 34 38 41 42 43 43 42 40 38 33 22 19 23 23 19 15 13 14 12 9 7 6 6 5 4 2 1 1 2 4
21 26 32 38 43 48 49 43 42 40 37 31 28 25 27 24 19 17 17 16 15 14 13 11 5 4 5 4 3 2 2 2
22 28 33 38 42 47 47 44 43 45 40 37 34 32 27 22 20 20 18 17 16 16 12 9 6 6 6 5 4 3 3 2
24 27 28 34 34 41 45 42 45 46 41 40 34 29 26 24 22 19 17 16 15 14 13 10 8 8 7 7 6 4 3 2
Wind_Direction
200 198 192 189 190 194 192 192 185 187 185 185 179 180 181 190 193 200 232 346 348 352 349 344 341 338 336 334 337 344 348 339
197 200 191 189 193 195 192 190 191 188 183 182 182 182 183 189 192 202 227 336 349 352 342 336 341 337 335 337 340 348 349 342
192 187 189 191 195 195 192 192 194 186 182 181 184 188 185 190 187 197 208 295 335 339 331 331 337 337 334 339 347 351 355 350
188 184 189 191 196 193 192 196 194 179 173 173 186 188 181 188 187 188 186 246 306 324 327 333 333 336 342 343 348 350 358 358
190 183 183 189 194 193 193 197 192 173 182 189 194 187 182 181 182 183 186 248 280 314 331 332 336 336 341 344 350 356 355 360
189 183 183 185 189 193 192 198 188 183 192 191 175 155 182 183 187 191 211 225 259 318 326 330 337 334 339 347 0 355 351 355
188 183 180 181 186 192 191 196 188 195 184 185 165 186 190 193 183 185 200 226 254 313 327 329 325 335 344 349 359 351 343 353
179 175 177 178 181 188 190 194 189 196 178 183 177 189 183 177 171 181 187 198 239 318 311 316 323 337 342 0 345 350 345 354
173 175 175 177 181 188 186 188 189 190 185 180 184 181 176 165 176 181 183 202 246 268 288 305 310 325 357 20 317 344 358 356
175 173 175 176 179 182 186 184 190 190 186 184 180 173 176 178 179 189 194 217 227 242 268 281 282 335 3 37 315 0 6 8
165 173 172 176 179 183 184 185 190 189 187 184 174 176 178 171 174 201 202 216 224 229 241 247 266 291 327 150 356 13 11 14
172 173 176 173 179 181 182 180 188 190 190 183 180 176 175 172 190 205 217 207 209 213 220 237 247 232 120 44 21 23 17 17
168 176 169 172 174 172 177 180 188 194 189 184 178 176 174 181 212 217 203 199 201 206 217 223 216 193 120 48 27 26 21 22
156 173 168 173 171 172 175 183 190 191 189 184 176 172 187 211 219 203 195 197 203 214 218 205 196 182 162 96 39 30 27 29
164 167 171 177 179 181 184 188 195 196 191 185 175 184 216 217 208 200 188 198 211 207 193 190 199 192 176 149 58 31 36 37
172 169 180 183 188 188 192 197 196 195 192 189 186 197 216 201 200 195 193 204 199 190 178 189 203 185 195 191 183 110 67 44
186 181 191 191 190 187 191 198 201 199 197 195 206 207 197 196 194 194 203 195 188 178 186 206 207 179 194 217 224 195 159 130
194 190 193 192 201 196 196 201 197 201 199 204 203 197 192 192 194 201 203 199 191 196 205 210 205 207 207 210 214 200 181 159
199 193 193 190 203 201 203 201 199 202 202 202 197 192 193 195 200 204 203 196 195 201 207 207 208 208 203 209 216 198 170 152
Height
1452 1456 1461 1465 1468 1471 1479 1481 1485 1485 1489 1494 1498 1500 1501 1503 1505 1506 1507 1508 1509 1508 1508 1509 1509 1507 1506 1505 1503 1501 1498 1493
1446 1455 1458 1463 1463 1466 1472 1477 1479 1482 1485 1490 1493 1495 1497 1500 1503 1504 1505 1506 1506 1506 1507 1507 1506 1506 1504 1504 1502 1500 1496 1492
1439 1447 1452 1457 1457 1461 1468 1472 1475 1479 1482 1487 1491 1493 1494 1497 1499 1501 1503 1504 1504 1505 1506 1505 1505 1504 1503 1502 1500 1499 1496 1491
1426 1434 1443 1451 1453 1457 1463 1467 1471 1477 1480 1484 1487 1489 1492 1494 1496 1498 1500 1501 1502 1503 1504 1503 1504 1502 1502 1501 1500 1499 1495 1494
1417 1422 1431 1442 1451 1458 1462 1465 1469 1474 1476 1478 1481 1485 1487 1490 1492 1494 1497 1499 1500 1501 1501 1502 1502 1501 1501 1500 1499 1498 1495 1492
1404 1410 1419 1429 1441 1452 1461 1464 1467 1470 1472 1475 1479 1482 1485 1487 1490 1492 1494 1497 1498 1499 1499 1500 1500 1500 1499 1499 1498 1497 1494 1493
1390 1399 1409 1420 1431 1443 1455 1461 1465 1466 1470 1472 1476 1478 1481 1484 1487 1490 1492 1494 1496 1497 1498 1498 1498 1498 1498 1498 1497 1496 1493 1492
1381 1391 1402 1412 1420 1430 1446 1455 1460 1463 1466 1469 1472 1475 1478 1481 1484 1487 1490 1493 1493 1495 1496 1497 1497 1496 1497 1497 1497 1494 1494 1490
1374 1384 1396 1406 1416 1422 1437 1449 1455 1458 1463 1465 1467 1472 1475 1479 1483 1486 1489 1490 1491 1493 1494 1495 1496 1496 1495 1495 1494 1495 1492 1490
1376 1385 1396 1403 1412 1419 1430 1444 1452 1456 1460 1462 1465 1469 1472 1477 1481 1485 1487 1488 1490 1491 1492 1494 1494 1494 1494 1493 1492 1492 1491 1488
1378 1385 1393 1401 1408 1414 1426 1440 1447 1453 1458 1460 1462 1466 1470 1476 1480 1482 1484 1487 1488 1488 1490 1492 1492 1492 1492 1491 1490 1490 1489 1487
1379 1387 1393 1402 1409 1413 1422 1434 1440 1448 1454 1458 1459 1463 1469 1473 1477 1478 1482 1484 1485 1486 1488 1489 1491 1490 1490 1489 1488 1488 1487 1486
1380 1387 1394 1401 1407 1415 1423 1430 1436 1445 1451 1454 1457 1462 1467 1470 1473 1477 1479 1481 1482 1484 1486 1487 1489 1488 1487 1487 1487 1487 1486 1484
1384 1388 1393 1398 1407 1414 1423 1428 1433 1441 1448 1452 1456 1461 1465 1468 1470 1473 1475 1478 1480 1483 1485 1485 1486 1486 1485 1486 1486 1486 1485 1483
1385 1388 1395 1399 1405 1413 1420 1426 1431 1437 1444 1449 1453 1458 1461 1466 1469 1471 1472 1474 1477 1480 1481 1482 1484 1483 1484 1484 1485 1484 1484 1483
1385 1387 1392 1393 1399 1408 1416 1422 1428 1433 1440 1447 1451 1454 1460 1464 1466 1468 1471 1473 1474 1478 1478 1479 1480 1480 1483 1483 1483 1483 1483 1482
1382 1385 1388 1391 1393 1399 1402 1415 1428 1435 1437 1443 1447 1452 1456 1460 1463 1465 1469 1470 1471 1475 1475 1476 1477 1480 1480 1482 1482 1482 1482 1482
1377 1381 1382 1385 1390 1397 1402 1408 1420 1430 1434 1439 1444 1448 1452 1457 1460 1462 1466 1467 1470 1471 1472 1474 1476 1478 1479 1480 1481 1482 1481 1481
1368 1375 1379 1383 1387 1396 1401 1408 1415 1424 1430 1434 1440 1445 1449 1453 1455 1459 1462 1465 1467 1468 1470 1472 1474 1476 1478 1479 1480 1481 1481 1481